Wind_Speed
26 26 27 27 27 24 22 23 22 21 17 14 10 9 8 5 6 6 2 1 4 2 4 4 5 3 4 4 2 5 5 5 4 6 4 4 3 3 1 6 4 5 5 4 4 4 4 20 7 6 4 6 8 8
29 28 28 29 26 24 25 22 22 20 19 15 13 10 9 7 6 7 3 4 2 2 4 8 13 15 9 4 0 4 3 5 2 3 3 3 3 4 4 3 8 4 3 3 5 4 4 8 10 10 8 6 6 7
33 34 29 28 26 23 22 22 22 19 19 16 13 12 9 8 6 6 4 4 4 3 4 2 3 0 7 11 6 2 3 4 3 1 1 2 2 3 3 2 3 3 4 4 3 5 8 8 8 9 7 5 6 8
37 35 29 28 26 23 21 21 19 18 20 17 15 11 10 8 7 5 3 2 2 1 1 4 3 3 4 2 5 6 3 6 4 1 2 2 2 3 2 3 4 4 4 3 5 8 9 7 7 6 8 8 10 10
24 28 29 27 27 25 23 19 17 18 20 18 15 12 9 8 8 5 2 2 3 2 2 4 16 5 5 2 2 3 4 1 2 3 1 2 2 3 3 3 3 4 3 1 2 5 5 5 5 6 6 7 9 9
20 24 30 28 27 25 22 19 16 19 18 17 16 13 8 7 10 4 2 5 10 4 1 3 6 3 7 3 4 5 3 2 0 1 2 3 1 2 2 2 5 7 4 4 4 8 10 7 3 3 6 7 14 13
24 25 28 28 27 24 22 18 18 20 18 17 16 12 7 9 13 4 2 2 12 10 1 2 2 3 4 1 2 2 3 1 2 2 2 2 2 2 2 2 7 7 5 8 7 8 6 5 4 4 6 14 19 18
25 27 27 23 22 22 22 18 16 19 18 18 14 7 8 7 7 9 12 3 19 4 1 1 3 1 2 1 1 1 1 2 2 2 2 1 2 2 1 9 9 9 8 8 8 9 8 7 6 7 13 17 12 10
24 26 29 22 25 23 22 20 17 18 19 19 12 10 6 3 3 4 5 8 11 2 2 2 1 3 2 1 1 1 1 1 3 1 2 2 2 1 3 11 11 10 7 9 9 7 6 7 9 10 11 10 11 9
25 23 27 26 25 24 23 20 20 21 21 17 12 5 2 6 7 17 5 2 2 1 1 3 2 2 3 1 0 0 1 2 1 4 1 2 1 1 4 8 7 7 12 10 7 7 8 9 9 9 9 11 13 12
26 28 28 27 25 24 22 23 23 23 20 6 4 3 3 17 4 1 3 3 3 3 3 4 5 3 2 3 2 3 2 2 1 3 3 2 3 2 7 9 7 10 15 14 14 14 15 14 9 9 10 14 14 12
24 25 27 27 25 24 22 23 25 19 9 9 8 4 7 3 2 3 4 4 4 5 4 3 4 4 1 2 2 1 2 3 3 1 3 2 2 8 8 8 8 13 17 17 19 17 18 18 18 17 15 13 12 10
24 25 25 25 25 25 24 25 27 15 12 7 1 1 2 3 5 4 6 3 3 3 4 3 2 3 3 2 2 1 1 3 1 1 3 1 6 7 8 10 10 17 19 18 17 20 21 19 18 16 14 13 10 10
22 22 22 23 26 27 25 23 26 9 3 2 3 4 4 4 4 4 4 5 4 4 5 4 2 3 1 2 2 3 3 1 2 2 3 4 8 7 9 7 10 9 15 15 15 17 16 17 17 15 13 10 10 10
21 19 20 22 28 27 25 20 21 9 2 2 2 4 5 3 1 2 3 2 1 4 5 3 3 3 1 2 2 3 2 3 5 3 2 7 9 11 10 10 9 8 12 13 16 17 17 17 16 14 9 9 8 7
19 16 16 22 26 25 21 21 13 1 0 2 3 3 2 1 1 2 2 3 1 3 3 3 3 3 4 3 4 6 3 5 2 2 5 9 10 9 9 9 14 18 18 17 17 16 15 14 13 12 7 5 4 3
19 6 19 24 27 26 24 9 4 3 3 2 3 2 1 1 2 1 1 2 3 4 3 3 5 6 3 2 4 4 4 1 5 6 6 9 10 9 13 16 18 19 19 18 16 14 13 10 10 9 8 7 6 6
10 15 25 28 28 23 7 2 4 3 4 3 3 2 1 1 1 1 2 1 2 2 2 2 2 2 4 4 3 3 2 4 5 6 7 9 13 16 18 17 20 20 19 18 16 13 12 10 10 12 12 10 9 11
14 24 30 31 25 8 4 2 2 2 3 1 2 1 1 0 1 2 1 4 2 1 2 2 0 2 2 1 2 4 7 3 7 6 6 14 19 19 21 20 19 19 18 18 16 14 12 11 9 4 7 13 5 7
18 33 32 32 17 3 3 2 5 2 2 3 2 2 2 1 1 1 1 2 2 1 1 2 1 2 1 1 1 5 6 7 8 7 6 6 17 20 19 17 16 17 16 14 14 11 14 13 10 8 6 2 4 5
27 30 30 28 3 2 0 3 3 2 2 2 3 3 2 2 1 2 1 1 0 2 2 1 2 2 4 4 11 15 14 14 6 5 8 8 15 15 18 17 18 18 16 16 15 12 9 4 13 9 7 4 3 0
18 23 8 8 1 1 2 3 1 3 2 2 3 2 2 2 2 2 2 3 2 1 1 2 3 3 2 2 9 15 18 19 17 19 19 19 9 11 13 16 18 14 15 19 16 18 11 13 9 6 4 3 1 1
18 15 5 4 3 3 2 0 3 4 3 4 3 2 2 2 2 3 2 1 1 1 5 5 11 12 12 13 14 13 16 20 15 16 18 17 18 18 20 20 18 15 12 12 11 14 12 8 5 4 3 1 1 4
13 4 5 6 5 3 2 3 2 2 2 3 4 3 4 2 3 1 3 2 2 3 4 6 13 7 8 9 2 9 17 20 18 18 19 19 14 18 20 16 13 10 11 15 11 12 9 7 4 2 2 5 4 5
5 4 3 4 3 4 4 3 2 3 3 4 3 2 2 3 2 3 3 3 2 2 4 10 7 5 3 2 8 11 18 21 15 9 19 19 19 20 19 17 13 11 11 12 11 10 9 7 6 5 4 3 2 3
5 4 4 6 4 4 5 4 5 4 3 3 2 2 2 2 3 1 2 1 2 3 5 5 4 3 2 11 4 10 17 18 21 14 15 20 21 21 15 12 10 5 7 6 9 8 8 10 8 6 4 3 5 6
4 3 2 2 2 2 2 1 2 3 3 4 3 4 3 4 3 2 1 5 2 7 12 11 9 10 10 15 18 16 17 20 20 19 18 16 13 12 17 16 14 11 9 8 7 6 4 5 4 3 1 1 3 2
2 1 4 2 2 2 2 2 2 1 1 3 3 5 2 1 2 2 2 11 6 15 16 14 12 22 25 25 24 23 25 25 24 21 18 15 11 11 12 14 13 11 8 6 6 6 5 5 4 3 1 1 3 4
1 1 3 4 3 3 4 4 2 2 3 2 2 3 2 3 4 6 7 12 14 18 17 18 18 25 25 22 19 21 20 19 18 6 5 3 5 6 8 10 9 7 6 5 4 3 3 2 2 1 2 3 4 5
2 0 3 2 3 2 2 3 2 1 1 3 4 3 2 3 9 12 14 13 8 12 14 16 17 18 16 17 16 16 12 9 9 9 6 5 11 13 12 11 10 8 5 5 6 6 5 4 4 4 3 4 4 6
1 1 3 3 3 2 1 0 2 5 3 4 4 3 3 3 4 15 20 18 13 18 17 14 15 16 16 16 16 15 10 8 7 8 11 16 17 15 12 10 10 10 8 6 5 3 2 2 3 5 4 5 6 6
1 2 3 3 2 1 1 2 2 2 3 2 2 2 2 3 3 6 18 19 2 12 12 15 15 15 15 14 11 7 9 14 13 14 15 17 16 14 12 11 9 8 7 7 5 4 3 3 3 4 5 7 8 9
2 3 3 3 2 3 2 1 2 1 2 2 2 2 3 3 3 2 9 19 18 20 21 21 20 18 16 16 16 18 18 16 14 13 13 13 13 13 12 9 8 9 8 5 3 3 3 4 4 6 5 6 9 12
Wind_Direction
187 191 188 184 184 188 182 181 182 180 178 180 182 176 173 176 160 157 43 25 19 2 305 24 355 339 346 24 33 303 5 352 359 27 14 341 341 9 30 12 25 35 347 20 359 55 24 354 21 57 85 56 38 39
183 186 185 182 181 179 181 180 179 175 178 179 173 173 169 161 146 160 79 107 81 99 258 306 275 270 269 307 13 328 279 3 19 38 16 335 334 342 356 21 13 40 38 76 27 78 67 33 58 59 65 64 46 46
190 182 184 180 179 175 173 175 179 178 176 178 181 171 160 171 159 125 100 71 60 36 300 299 257 359 215 227 222 109 304 356 353 236 255 278 333 341 16 359 82 36 39 86 139 86 76 76 67 55 51 54 84 56
175 173 179 184 181 175 172 173 180 176 179 176 177 169 162 170 165 145 122 115 77 5 283 296 109 168 118 119 190 207 263 330 312 320 232 333 296 346 352 88 90 1 46 80 89 127 109 73 62 68 53 30 42 77
169 180 183 181 179 172 171 171 175 175 177 173 176 171 161 165 177 160 196 193 203 335 355 299 310 133 113 124 176 173 209 254 304 334 39 252 282 4 332 65 49 7 357 356 116 98 94 99 72 64 55 62 58 48
173 180 177 176 173 171 169 167 173 172 173 171 172 171 167 179 181 140 358 240 211 194 36 324 329 203 161 184 210 196 218 222 96 291 275 282 343 87 36 81 110 82 52 10 122 83 84 108 100 70 98 73 78 66
170 168 173 177 175 174 173 168 163 167 174 172 168 171 168 176 183 188 201 55 187 173 166 298 302 22 354 219 19 41 31 324 113 290 284 225 277 91 111 130 140 112 111 103 110 126 123 162 116 82 83 97 85 76
167 163 166 167 172 175 176 170 164 169 167 162 157 149 160 172 205 260 251 325 160 126 233 289 273 108 183 230 314 98 352 8 291 222 319 262 313 121 116 130 133 134 126 114 94 76 85 80 67 51 51 95 83 74
163 168 161 167 167 168 171 171 165 166 160 157 148 143 130 168 194 221 179 166 178 214 209 181 256 222 189 147 131 6 177 303 250 220 258 69 298 79 153 140 150 161 170 138 122 125 134 107 82 63 59 71 81 73
168 163 165 171 164 165 166 166 163 156 156 152 144 157 184 199 178 132 102 131 166 254 269 243 207 218 143 143 71 164 246 238 271 238 56 94 81 281 64 133 132 112 138 151 150 160 118 95 88 82 84 82 80 78
171 173 173 168 162 161 160 161 161 155 145 152 154 192 167 150 124 122 140 172 151 202 206 225 204 149 248 131 184 189 205 237 331 265 123 238 128 99 75 79 71 74 81 73 80 67 102 119 123 114 95 88 84 81
162 167 167 167 164 164 163 161 158 155 170 180 167 145 138 166 180 187 176 169 200 214 182 171 220 155 240 118 116 246 177 19 245 193 75 277 125 118 105 93 76 79 83 80 81 82 83 89 99 100 97 94 94 92
154 163 168 168 168 166 164 164 170 155 144 132 89 151 172 167 194 206 165 186 178 166 177 169 75 117 42 59 39 123 228 235 22 55 224 158 131 115 106 97 87 92 94 94 86 83 86 83 96 103 104 110 111 102
150 157 162 169 171 169 167 166 170 154 138 135 190 213 202 179 231 188 184 179 212 134 139 118 81 105 134 80 150 187 226 9 252 248 226 148 140 127 114 99 93 84 90 92 93 99 102 105 103 106 110 117 117 101
151 153 161 167 172 171 173 168 169 154 137 230 232 228 202 228 96 324 307 77 44 130 110 78 51 101 113 142 199 219 217 240 207 218 129 142 125 117 115 115 116 113 109 107 121 121 123 122 119 119 119 120 114 107
153 150 166 170 171 172 166 160 162 96 209 239 250 280 248 188 113 325 336 177 119 116 76 79 133 138 185 192 182 208 209 221 210 110 129 127 124 125 127 123 126 129 131 134 139 138 139 141 140 137 142 146 148 145
155 141 170 167 164 154 147 123 128 187 223 220 231 243 232 266 316 160 10 284 111 110 158 142 145 190 151 190 201 195 213 130 133 127 135 137 133 132 130 134 142 139 140 146 147 151 151 152 157 160 180 197 209 219
166 161 163 159 145 140 126 123 193 179 222 236 226 197 154 120 324 1 308 294 123 186 99 223 151 142 188 182 242 166 111 104 111 122 128 124 123 131 139 144 149 150 152 156 157 159 167 180 194 220 238 223 234 244
167 163 155 152 144 121 141 194 222 228 202 117 98 343 53 149 210 287 355 331 313 225 89 25 113 230 199 63 110 132 141 132 133 119 119 122 132 140 147 152 153 155 157 158 165 179 193 200 220 204 214 213 235 54
162 161 165 158 159 144 135 140 190 241 203 208 127 170 155 154 107 66 347 326 29 346 182 220 184 86 47 341 260 146 130 132 131 129 126 128 145 147 154 156 157 159 164 181 196 201 198 210 217 202 156 70 78 60
146 161 161 163 183 10 290 181 199 205 133 189 151 144 129 101 129 187 208 88 313 225 191 109 102 89 342 46 114 126 136 147 153 152 158 148 154 154 163 172 169 170 181 197 193 195 206 166 146 139 131 136 159 259
130 149 132 178 340 273 257 224 238 158 129 141 145 144 139 205 170 178 137 201 225 111 153 127 138 149 101 100 133 143 154 158 150 136 141 148 160 162 179 166 171 187 197 203 198 190 191 144 141 139 154 145 150 227
125 130 122 157 231 224 212 130 181 183 151 180 152 191 175 187 162 131 208 187 124 235 114 120 145 143 116 122 131 135 143 126 129 139 149 163 168 173 166 176 190 192 174 163 159 150 147 152 157 160 152 168 295 291
160 181 174 191 206 196 160 184 176 190 132 179 180 172 156 142 138 219 244 131 199 121 103 124 126 123 118 128 106 131 136 137 133 148 163 158 155 153 168 177 163 140 179 165 153 145 151 161 163 199 231 220 255 295
150 215 201 200 146 160 175 162 162 188 194 205 150 131 154 141 195 214 207 143 157 133 141 139 142 149 144 148 147 146 148 145 147 143 155 159 143 130 119 116 120 120 134 145 147 159 172 184 186 193 220 238 268 282
201 171 223 170 177 191 177 159 188 184 149 168 164 125 142 186 215 226 60 69 138 150 157 162 159 154 153 153 126 128 151 158 149 109 115 150 151 145 137 130 127 148 171 157 172 182 190 205 212 211 213 254 294 284
172 149 188 217 265 124 105 6 87 123 165 168 151 162 180 201 182 92 88 358 355 122 159 174 183 179 130 112 107 111 136 147 139 123 117 121 132 164 178 173 158 161 184 191 192 186 159 133 125 136 114 22 39 70
63 344 164 152 68 340 107 92 118 118 94 348 160 189 179 59 81 27 349 332 33 93 90 82 97 111 114 124 125 122 120 127 130 129 120 105 104 116 132 145 155 166 174 179 178 177 169 159 136 111 119 69 16 1
101 63 64 44 65 50 38 14 56 60 342 316 9 74 81 53 5 8 346 3 95 98 96 95 93 111 116 118 122 129 134 141 132 108 107 128 124 109 136 146 150 146 144 142 122 124 162 149 146 255 329 338 327 338
142 192 93 63 55 76 48 351 64 300 350 88 106 100 73 54 30 41 31 28 92 94 102 109 116 115 117 118 117 100 108 138 176 176 158 168 169 157 152 149 140 127 118 115 100 93 91 85 61 20 19 1 350 334
296 187 93 67 73 56 116 177 70 51 28 55 56 88 121 143 66 27 24 17 123 130 124 117 117 123 124 125 126 121 98 99 113 125 140 142 144 146 146 144 142 149 156 156 144 125 98 88 40 32 32 14 2 350
7 78 121 112 116 213 213 228 185 126 162 87 76 107 180 94 67 18 7 14 101 129 121 117 107 101 134 141 151 163 152 132 125 130 138 141 144 150 154 152 152 155 150 142 125 82 69 47 33 7 357 351 345 341
88 82 102 110 116 200 220 197 121 121 100 85 52 84 46 83 101 83 27 49 79 98 101 108 117 126 131 134 136 138 140 138 142 141 138 136 134 133 135 137 135 132 126 120 106 88 51 28 20 11 1 343 335 335
Height
715 722 727 733 739 744 750 755 762 766 770 775 778 781 783 786 786 788 791 791 793 795 790 787 788 788 788 789 800 788 788 782 785 782 781 776 770 757 760 753 751 763 757 772 762 761 778 789 773 780 799 803 803 802
712 720 726 732 738 743 749 755 761 765 770 774 778 782 784 786 787 789 791 793 794 795 794 789 788 786 788 788 791 790 789 785 787 794 791 784 776 772 764 771 760 775 772 782 787 796 806 805 804 806 807 808 809 805
711 718 725 731 737 743 749 755 760 765 769 773 778 782 784 787 788 790 793 793 795 796 795 789 783 782 783 785 787 793 791 786 786 785 792 785 782 773 780 778 775 773 771 787 793 805 807 808 810 810 809 808 808 809
707 716 724 731 736 743 749 754 759 763 769 773 778 782 783 788 789 792 793 795 797 800 797 789 782 783 783 784 786 787 787 786 785 785 788 782 787 775 775 775 783 784 784 788 800 806 808 811 813 813 812 811 812 812
709 716 723 730 736 743 748 753 759 763 769 773 777 781 785 787 790 793 794 795 798 802 797 795 785 783 783 785 785 786 786 787 789 790 792 791 782 781 776 779 792 795 797 794 801 803 807 815 815 815 815 816 817 817
710 716 722 729 736 742 748 753 758 763 769 773 778 782 785 787 791 794 795 794 796 799 801 798 785 782 783 784 784 784 784 785 787 788 787 782 776 784 788 798 799 802 802 800 806 808 810 816 817 816 818 818 820 822
711 717 723 730 736 742 747 754 758 764 769 774 778 782 785 787 790 793 794 793 795 799 800 798 789 783 783 783 784 785 784 786 788 789 787 784 780 780 798 803 802 804 806 806 808 810 815 817 818 818 818 820 823 827
711 717 723 730 736 742 748 754 759 765 770 774 780 783 785 788 791 792 791 793 795 798 800 797 795 789 784 789 790 785 789 787 787 788 785 783 781 783 791 794 799 803 806 808 810 812 814 817 818 819 819 823 826 832
712 717 724 731 737 743 748 755 760 765 770 776 780 784 787 789 791 790 792 795 797 801 797 796 793 805 784 785 788 788 787 789 785 792 785 784 789 796 787 791 799 800 802 809 811 812 815 819 823 825 826 830 831 836
712 718 726 732 738 744 749 755 761 766 771 776 782 785 785 784 786 788 793 796 797 796 796 792 788 793 786 788 792 789 789 796 797 787 781 793 800 791 788 789 795 798 802 805 809 813 817 823 826 830 834 836 837 839
713 720 726 733 739 744 750 756 762 767 773 777 780 780 780 782 785 787 790 790 792 793 791 786 783 790 782 795 793 788 798 794 798 790 794 797 795 797 797 799 800 802 805 808 810 812 814 821 828 833 837 839 840 842
716 722 728 734 740 746 751 757 763 768 772 774 775 776 779 782 784 783 784 785 787 781 779 784 781 777 782 779 788 788 793 797 794 787 799 805 797 796 800 804 806 807 810 814 816 819 823 827 831 835 838 841 843 845
719 724 730 736 741 747 753 758 763 768 771 774 775 776 775 779 775 777 772 775 783 770 772 775 777 777 782 783 793 785 788 805 789 798 791 795 795 799 803 807 811 814 816 819 823 826 829 832 835 837 841 843 844 845
722 727 732 738 743 749 754 760 766 769 772 774 773 770 772 771 773 767 765 762 761 761 765 770 780 783 786 789 791 785 785 787 781 792 788 794 797 803 806 811 815 820 822 826 829 831 834 836 839 841 842 844 845 846
725 730 734 740 745 750 756 761 767 770 772 772 768 763 770 761 756 758 757 756 757 758 763 775 780 784 786 783 785 783 784 787 790 779 783 791 799 806 812 815 819 823 826 829 832 835 837 839 841 843 844 845 846 846
727 732 736 740 746 752 758 763 768 770 772 772 768 765 760 756 758 759 758 756 754 761 765 771 781 782 779 779 782 778 783 784 778 782 789 795 801 808 812 816 820 823 826 830 833 836 838 840 841 843 844 845 845 845
728 731 736 741 748 754 759 764 770 771 771 767 765 763 765 765 760 759 760 759 755 762 770 773 782 771 779 782 772 778 786 775 782 787 791 796 802 808 812 816 820 824 827 831 834 836 838 840 841 843 843 843 843 843
730 732 737 744 749 757 762 764 766 766 767 766 767 761 764 764 762 762 761 760 761 763 765 766 765 769 782 776 782 778 778 782 785 789 794 799 804 808 812 816 820 824 828 831 833 836 837 839 840 840 841 840 840 840
730 734 740 745 751 756 762 765 765 763 766 763 765 763 762 763 763 763 762 761 760 758 762 766 768 774 772 766 768 774 778 784 788 794 799 802 805 809 813 818 821 824 827 829 832 834 835 836 837 837 837 838 840 838
733 737 741 749 753 754 757 760 761 760 760 761 761 764 763 763 764 764 764 763 763 763 763 767 769 768 769 770 770 771 777 783 789 796 801 805 808 811 815 818 821 824 827 830 832 832 833 834 834 835 835 836 836 837
737 742 747 752 754 755 755 755 755 754 757 759 757 759 762 763 765 765 765 764 766 763 761 764 769 771 772 771 771 773 779 783 787 790 796 803 808 811 815 818 821 823 825 827 829 830 831 831 831 833 834 835 835 836
737 744 749 754 754 754 754 753 752 751 756 756 758 758 761 761 760 761 762 764 760 761 763 767 770 771 773 774 775 775 779 783 787 791 797 802 806 810 814 815 818 821 822 823 825 826 828 829 830 831 832 833 834 834
741 747 751 754 755 753 752 750 751 750 757 756 756 755 757 757 758 759 763 758 763 761 760 764 767 770 773 775 776 778 779 782 788 792 797 801 804 808 810 813 816 817 819 821 822 824 826 828 829 830 831 831 832 832
743 745 747 748 747 753 749 747 747 747 749 750 750 751 753 755 757 759 755 760 763 760 763 766 768 772 775 777 778 779 781 784 788 793 797 799 803 806 809 812 814 816 817 819 821 823 825 826 828 828 829 829 830 830
744 744 744 739 741 744 742 745 744 746 748 747 747 750 753 755 755 753 751 757 763 764 764 768 770 772 775 778 779 781 782 785 789 792 796 799 802 806 809 812 814 817 818 819 821 822 824 825 826 827 827 827 828 828
731 738 738 732 735 734 736 739 740 740 741 745 744 747 750 749 747 745 755 758 759 761 763 766 769 772 774 776 779 781 784 787 790 793 797 799 802 805 809 812 815 817 818 819 820 821 822 823 824 824 825 825 825 825
726 732 734 732 732 729 734 732 730 738 743 740 742 745 746 743 742 763 765 765 762 762 764 766 768 769 772 777 781 783 786 788 791 796 800 801 804 806 808 811 813 816 817 818 819 820 821 822 822 823 823 823 823 823
732 732 731 732 732 733 732 734 736 740 740 741 738 737 738 754 767 772 770 768 765 765 766 767 768 770 774 779 783 786 790 792 795 799 802 805 807 809 810 811 813 815 816 817 818 819 820 821 821 821 822 822 823 822
732 734 736 740 738 742 748 747 745 750 752 748 742 756 767 772 776 774 772 770 769 769 771 773 777 777 781 785 788 790 793 795 797 803 806 809 811 813 813 813 814 816 817 817 818 819 820 820 821 821 822 822 822 822
735 734 739 743 745 749 756 755 756 755 753 755 760 768 774 777 778 776 774 773 774 775 776 778 780 782 785 788 792 795 797 798 800 801 805 807 808 811 813 814 815 817 817 818 819 820 821 821 821 822 822 821 821 821
733 732 737 745 753 756 758 757 756 755 756 759 761 769 775 779 779 779 778 776 777 778 780 782 785 787 788 791 793 796 799 801 802 802 802 805 808 811 813 815 816 817 818 819 820 820 821 821 821 821 821 821 820 819
733 734 742 753 760 760 759 757 755 759 762 766 770 772 775 776 785 785 784 781 781 782 783 785 787 790 791 793 796 799 800 803 805 806 806 808 810 813 814 816 817 818 819 820 820 821 821 821 821 821 821 820 819 818
736 740 745 752 759 759 758 755 756 758 759 763 769 769 775 781 789 789 789 786 784 785 787 790 792 793 795 797 799 801 803 805 807 809 810 812 813 814 816 817 818 819 820 821 821 822 822 822 821 821 820 819 818 817